Location: Treviso
(45.6669°N, 12.2430°E)
Time: 15:55:16
(UTC+01:00)

Envisat - Visible Passes

Search period start: 19 February 2019 00:00
Search period end: 01 March 2019 00:00
Orbit: 764 x 766 km, 98.2° (Epoch: 19 February)

Date Brightness Start Highest point End Pass type
(mag) Time Alt. Az. Time Alt. Az. Time Alt. Az.
19 Feb 3.1 18:49:55 10° SSE 18:55:00 84° WSW 19:00:07 10° NNW visible
19 Feb 6.2 20:33:38 10° W 20:34:48 11° W 20:35:58 10° WNW visible
20 Feb 3.3 18:13:30 10° SE 18:18:21 47° ENE 18:23:13 10° N visible
20 Feb 5.3 19:53:33 10° SW 19:57:35 23° W 20:01:39 10° NW visible
21 Feb 6.3 06:21:40 10° ENE 06:24:09 13° E 06:26:37 10° ESE visible
21 Feb 4.0 19:15:41 10° S 19:20:36 49° W 19:25:33 10° NNW visible
22 Feb 2.9 18:38:44 10° SSE 18:43:48 79° ENE 18:48:54 10° N visible
22 Feb 6.0 20:20:53 10° WSW 20:23:26 14° W 20:26:00 10° WNW visible
23 Feb 5.0 19:41:54 10° SSW 19:46:17 29° W 19:50:43 10° NW visible
24 Feb 6.7 06:11:51 10° ENE 06:12:47 10° E 06:13:42 10° E visible
24 Feb 3.6 19:04:20 10° S 19:09:20 62° WSW 19:14:24 10° NNW visible
25 Feb 3.0 18:27:36 10° SSE 18:32:36 64° ENE 18:37:39 10° N visible
25 Feb 5.8 20:08:45 10° SW 20:12:05 17° W 20:15:25 10° NW visible
26 Feb 4.6 19:30:21 10° SSW 19:35:00 36° W 19:39:41 10° NNW visible
27 Feb 3.2 18:53:02 10° S 18:58:07 77° WSW 19:03:14 10° NNW visible
28 Feb 5.5 19:56:54 10° SW 20:00:45 22° W 20:04:38 10° NW visible
